Location: Eisingen in Unterfranken
(49.7591°N, 9.8347°E)
Time: 09:27:36
(UTC+01:00)

Envisat - Pass Details

Date: 01 December 2022
Orbit: 763 x 765 km, 98.2° (Epoch: 04 February)

Event Time Altitude Azimuth Distance (km) Brightness Sun altitude
Rises 03:14:53 0° 28° (NNE) 3,245 6.7 -44.2°
Reaches altitude 10° 03:18:08 10° 50° (NE) 2,313 6.0 -43.7°
Enters shadow 03:18:40 12° 55° (NE) 2,197 5.9 -43.6°
